www.pogodaiklimat.ru

Погода и климат >> Архив погоды >> Россия >> Ханты-Мансийский АО >> Шаим


ПОГОДА в Шаиме

  • Прогноз погоды в Шаиме
  • Монитор погоды в Шаиме

АРХИВ ПОГОДЫ в Шаиме

Время (UTC), дата Ветер
(напр.,м/с)
 
Видим.   Явления Облачность Т
(С)
Тd
(С)
f
(%)
Тe
(С)
Тes
(С)
Комфортность P
(гПа)
Po
(гПа)
Тmin
(С)
Tmax
(С)
R
(мм)
R24
(мм)
S
(см)
00 14.09 ЮЗ 2 10 км 8/3 600 м
[Sc Ci fib]
+10.5 +9.1 91 +9 +9 1011.0 1004.6
03 14.09 ЮЗ 2 10 км 10/3 600 м
[Sc Ac trans Ci fib]
+12.5 +10.1 85 +12 +12 1010.7 1004.3 +9.6
06 14.09 З 2 10 км 10/0
[Ac trans Ci fib]
+17.7 +10.5 63 +18 +21 1010.3 1004.1
09 14.09 З 3 10 км 10/3 1000 м
[Cu hum Ci fib]
+21.2 +10.0 49 +23 +25 комфорт 1010.0 1003.8
12 14.09 СЗ 5-12
{12}
10 км гроза без осадков 10/6 600 м
[Cb cap Ac trans Ci fib]
+18.5 +9.9 57 +19 +19 1010.3 1004.1
15 14.09 Ю 2
{12}
10 км {гроза, ливн. осадки} 10/3 600 м
[Cb cap Ac trans Ci fib]
+12.8 +11.3 91 +12 +12 1010.0 1003.7 +21.5 6
18 14.09 Ю 2 10 км {гроза, ливн. осадки} 9/9 600 м
[Sc]
+13.6 +11.1 85 +13 +13 1008.7 1002.3
21 14.09 ЮЗ 3 10 км 10/4 600 м
[Sc Ci fib]
+14.0 +9.0 72 +13 +13 1008.0 1001.7
00 15.09 ЮЗ 3 10 км 10/3 600 м
[Sc Ac trans Ci fib]
+12.1 +8.5 79 +11 +11 1007.5 1001.2
03 15.09 ЮЗ 4 10 км 10/3 600 м
[Sc Ac trans Ci fib]
+13.5 +9.3 76 +12 +12 1006.8 1000.5 +11.9
06 15.09 Ю 4 10 км 10/3 600 м
[Sc Ac trans Ci fib]
+18.5 +9.2 55 +19 +20 1005.9 999.8
09 15.09 ЮЗ 4 10 км 10/5 600 м
[Sc Ac trans Ci fib]
+21.5 +7.3 40 +22 +23 комфорт 1005.3 999.2
12 15.09 ЮЗ 1
{10}
10 км 10/0
[Ac trans Ci fib]
+21.1 +8.7 45 +22 +23 комфорт 1004.2 998.1
15 15.09 ЮЗ 1 10 км 10/8 600 м
[Sc Ci fib]
+14.7 +10.3 75 +15 +15 1003.0 996.8 +22.0
18 15.09 Ю 1 10 км в посл. час ливневой дождь 9/9 600 м
[Cb cap]
+12.0 +10.4 90 +12 +12 1003.6 997.3
21 15.09 ЮЗ 2 10 км 8/3 600 м
[Sc Ci fib]
+10.3 +9.1 92 +9 +9 1003.6 997.3
00 16.09 ЮЗ 2 10 км {ливн. осадки} 10/10 600 м
[Cb cap]
+10.2 +9.3 94 +9 +9 1003.6 997.3
03 16.09 ЮЗ 2 10 км 10/10 600 м
[Cb cap]
+10.4 +9.1 92 +9 +9 1003.6 997.2 +9.8 3
06 16.09 ЮЗ 2 10 км 10/8 600 м
[Sc Ac trans Ci fib]
+12.9 +7.7 71 +12 +13 1003.2 996.9
09 16.09 ЮЗ 3 10 км 9/9 600 м
[Sc]
+13.0 +5.2 59 +12 +12 1002.9 996.6
12 16.09 З 2 10 км 8/8 600 м
[Cb cap]
+13.0 +5.1 59 +12 +13 1002.0 995.7
15 16.09 Ю 1 10 км 10/3 600 м
[Sc Ac trans Ci fib]
+7.7 +4.8 82 +7 +7 1001.3 994.9 +14.6
18 16.09 Ю 3 10 км 10/0
[Ac trans Ci fib]
+5.7 +4.0 89 +2 +2 1000.7 994.3
21 16.09 Ю 3 10 км 10/0
[Ci fib]
+4.9 +3.4 90 +1 +1 999.5 993.0
00 17.09 Ю 2 10 км 10/0
[Ci fib]
+3.3 +2.3 93 0 0 998.0 991.6
03 17.09 Ю 2 10 км 10/10 600 м
[Cb cap]
+5.4 +4.3 93 +3 +3 996.8 990.4 +3.2
06 17.09 ЮВ 2 10 км в посл. час ливневой дождь 10/10 600 м
[Cb cap]
+7.0 +5.7 91 +5 +5 996.2 989.8
09 17.09 Ю 2 4000 м дымка {ливн. осадки} 10/10 600 м
[Cb cap]
+8.4 +6.9 90 +6 +6 996.1 989.8
12 17.09 Ю 2 10 км {ливн. осадки} 9/9 600 м
[Cb cap]
+11.0 +7.0 76 +10 +10 996.6 990.3
15 17.09 Ю 2 10 км 9/9 600 м
[Cb cap]
+9.7 +7.3 85 +8 +8 997.4 991.1 +11.2 0.5
18 17.09 Ю 3 10 км {ливн. осадки} 4/3 600 м
[Cb cap Ci fib]
+7.3 +5.9 91 +4 +4 997.7 991.3
21 17.09 Ю 3 10 км 3/0
[Ci fib]
+6.7 +5.3 91 +4 +4 997.6 991.2
00 18.09 Ю 2 10 км 10/6 600 м
[Sc Ac trans Ci fib]
+6.4 +5.2 92 +4 +4 997.2 990.8
03 18.09 Ю 3 10 км 10/4 600 м
[Sc Ac trans Ci fib]
+7.5 +6.1 91 +5 +5 997.0 990.6 +5.9 1
06 18.09 ЮЗ 3 10 км 9/9 600 м
[Cb cap]
+11.4 +7.5 77 +10 +10 996.8 990.5
09 18.09 ЮЗ 3 10 км {ливн. осадки} 9/9 600 м
[Cb cap]
+11.9 +8.3 79 +10 +11 997.2 990.9
12 18.09 ЮЗ 2
{12}
10 км в посл. час гроза {ливн. осадки} 10/6 600 м
[Cb cap Ci fib]
+12.0 +8.1 77 +11 +11 997.5 991.2
15 18.09 Ю 2 10 км 8/3 600 м
[Sc Ci fib]
+7.4 +5.9 90 +5 +5 997.8 991.4 +14.8 3
18 18.09 ЮЗ 3 10 км 10/0
[Ci fib]
+6.1 +4.6 90 +3 +3 997.9 991.5
21 18.09 Ю 3 10 км 10/0
[Ci fib]
+4.8 +3.6 92 +1 +1 997.6 991.2
00 19.09 ЮЗ 3 10 км 10/0
[Ac trans Ci fib]
+4.4 +3.4 93 +1 +1 997.6 991.1
03 19.09 ЮЗ 3 10 км 10/0
[Ac trans Ci fib]
+6.0 +4.6 91 +3 +3 996.9 990.5 +4.3
06 19.09 ЮЗ 2 10 км 10/0
[Ac trans Ci fib]
+11.8 +6.1 68 +11 +14 996.3 990.0
09 19.09 Ю 2 10 км 10/8 600 м
[Sc Ac trans Ci fib]
+12.9 +4.5 57 +12 +13 994.6 988.4
12 19.09 В 1 10 км 10/8 600 м
[Cb cap Ac trans Ci fib]
+12.1 +6.1 67 +12 +12 991.9 985.7
15 19.09 С 3 10 км 10/10 600 м
[Cb cap]
+9.4 +6.1 80 +7 +7 988.3 982.0 +13.4
18 19.09 С 6
{10}
10 км 10/10 600 м
[Cb cap]
+8.9 +5.1 77 +5 +5 986.2 979.9
21 19.09 СЗ 6-12
{12}
10 км 10/10 600 м
[Cb cap]
+8.0 +5.0 81 +4 +4 988.2 981.9
00 20.09 З 6-13
{14}
10 км 10/10 600 м
[Cb cap]
+6.9 +3.5 79 +3 +3 992.0 985.7
03 20.09 З 4-10
{15}
10 км 9/9 600 м
[Sc]
+5.5 +0.6 71 +2 +2 995.2 988.8 +5.2
06 20.09 З 5-10
{12}
10 км 10/10 600 м
[Sc]
+6.4 +0.3 65 +3 +3 998.4 992.0
09 20.09 З 4
{12}
10 км 9/9 600 м
[Cb cap]
+7.9 -0.1 57 +5 +5 1001.8 995.4
12 20.09 З 4
{12}
10 км 9/9 600 м
[Cb cap]
+7.4 -1.0 55 +4 +5 1005.0 998.6
15 20.09 ЮЗ 3
{12}
10 км 8/4 600 м
[Cb cap Ac trans Ci fib]
+5.5 -1.0 63 +3 +3 1006.9 1000.4 +7.9
18 20.09 З 3 10 км 4/3 600 м
[Sc Ci fib]
+3.9 -1.9 66 +1 +1 1009.4 1002.9

 

Местоположение метеостанции Шаим (Ханты-Мансийский АО, Россия): широта 60.32 долгота 64.22 высота над уровнем моря 53 м.

В архиве по умолчанию представлена погода в Шаиме за последнюю неделю. Архивные данные за месяц целиком и за предыдущие месяцы, начиная с января 2011 года, Вы можете получить, выбрав интересующий диапазон дат из раскрывающегося списка и нажав кнопку "Ввод!".


*Определитесь, кто Вы:
робот инопланетянин человек

Внимание! Время в таблицах - всемирное. Для получения местного времени необходимо прибавить поправку, которая равна 5 ч.

Смотрите также архив погоды в соседних городах и на ближайших метеорологических станциях:

Погода в Леушах (Ханты-Мансийский АО, Россия) (113 км)
Погода в Югорске (Ханты-Мансийский АО, Россия) (118 км)
Погода в Атымье (Свердловская область, Россия) (135 км)
Погода в Гарях (Свердловская область, Россия) (145 км)
Погода в Талинке (Ханты-Мансийский АО, Россия) (183 км)
Погода в Вонъегане (Ханты-Мансийский АО, Россия) (185 км)
Погода в Агирише (Ханты-Мансийский АО, Россия) (189 км)
Погода в Кондинском (Ханты-Мансийский АО, Россия) (193 км)
Погода в Таборах (Свердловская область, Россия) (200 км)
Погода в Куминской (Ханты-Мансийский АО, Россия) (207 км)

Пояснения к столбцам:

Ветер - указаны скорость ветра в м/с - средняя за 10 мин, порывы в срок и между сроками (в фигурных скобках) и направление, откуда дует ветер: С - северный, СВ - северо-восточный, В - восточный, ЮВ - юго-восточный, Ю - южный, ЮЗ - юго-западный, З - западный, СЗ - северо-западный.
Видимость - горизонтальная дальность видимости в метрах или километрах. При видимости от 1 до 10 км при отсутствии осадков обычно наблюдается дымка, при ухудшении видимости до 1 км и менее - туман. В сухую погоду видимость может ухудшаться дымом, пылью или мглою.
Явления - указаны атмосферные явления, наблюдавшиеся в срок или в последний час перед сроком; фигурными скобками обозначены явления, наблюдавшиеся между сроками (за 1-3 часа до срока); квадратными скобками обозначены град или гололедные отложения с указанием их диаметра в мм.
Облачность - указаны через наклонную черту общая и нижняя облачность в баллах и высота нижней границы облаков в метрах; квадратными скобками обозначены формы облаков: Ci - перистые, Cs - перисто-слоистые, Cc - перисто-кучевые, Ac - высококучевые, As - высокослоистые, Sc - слоисто-кучевые, Ns - слоисто-дождевые, Cu - кучевые, Cb - кучево-дождевые. Подробнее классификацию облаков см. в Атласе облаков (PDF).
T - Температура воздуха - температура, измеренная на высоте 2 м над землей.
Td - Температура точки росы - температура, при понижении до которой содержащийся в воздухе водяной пар достигнет насыщения.
f - Относительная влажность воздуха - влажноcть воздуха, измеренная на высоте 2 м над землей.
Te - Эффективная температура - температура, которую ощущает одетый по сезону человек в тени. Характеристика душности погоды. При расчете учитывается влияние влажности воздуха и скорости ветра на теплоощущения человека.
Tes - Эффективная температура на солнце - температура, которую ощущает человек, с поправкой на солнечный нагрев. Характеристика знойности погоды. Зависит от высоты солнца над горизонтом, облачности и скорости ветра. Ночью, в пасмурную погоду, а также при ветре 12 м/с и более поправка равна нулю.
P - Атмосферное давление - приведенное к уровню моря атмосферное давление.
Po - Атмосферное давление - измеренное на уровне метеостанции атмосферное давление.
Tmin - Минимальная температура - минимум температуры воздуха на высоте 2 м над землей.
Tmax - Максимальная температура - максимум температуры воздуха на высоте 2 м над землей.
R - Количество осадков - Количество выпавших осадков за период времени, мм. При наведении курсора мыши на число - период времени, за который выпало указанное количество осадков.
R24 - Количество осадков - Количество выпавших осадков за 24 часа, мм.
S - Снежный покров - Высота снежного покрова, см. При наведении курсора мыши на число - состояние снежного покрова и степень покрытия местности в баллах.